User: anonymous   Login
Location: Unspecified
(0.0000°N, 0.0000°E)
Time: 08:38:05
(UTC+01:00)
Language:

Cosmos 407 Rocket - Orbit

View from above orbital plane
View from above orbital plane
View from above satellite
View from above satellite

Ground track
Ground track

The orbit data is extracted from the following two-line orbital elements,

1 05175U 71035B   17058.19490668 -.00000037  00000-0 -35821-5 0  9994
2 05175  74.0458  51.5543 0031242 286.7801  72.9925 14.37843474399139
Epoch (UTC): 27 February 2017 04:40:39
Eccentricity: 0.0031242
inclination: 74.0458°
perigee height: 743 km
apogee height: 788 km
right ascension of ascending node: 51.5543°
argument of perigee: 286.7801°
revolutions per day: 14.37843474
mean anomaly at epoch: 72.9925°
orbit number at epoch: 39913

The dashed part of the orbit path shows where the satellite is in the earth's shadow,  

DLR